Location: Weatherford
(35.5260°N, 98.7070°W)
Time: 10:15:30
(UTC-06:00)

Amateur Radio Satellites - All Passes

Search period start: 04 December 2016 09:45
Search period end: 05 December 2016 09:45
Location: Weatherford, 35.5260°N, 98.7070°W

Satellite Date Start Highest point End Downlink Frequencies (MHz)
Time Altitude Azimuth
AAUSAT CUBESAT 2 04 Dec 09:45:31 09:49:03 28° 288° (WNW) 09:52:35 437.432
UWE-3 04 Dec 09:46:42 09:50:44 40° 287° (WNW) 09:54:40 435.000/436.395/437.385
UNISAT 6 04 Dec 09:52:09 09:56:47 65° 75° (ENE) 10:01:26 437.425
DANDE 04 Dec 09:52:42 09:55:46 16° 95° (E) 09:58:25 436.750
PRISM 04 Dec 09:59:41 10:02:27 18° 265° (W) 10:05:14 437.425
SEEDS 04 Dec 10:01:56 10:02:24 10° 295° (WNW) 10:02:53 437.485
COMPASS 1 04 Dec 10:16:08 10:16:50 10° 294° (WNW) 10:17:32 437.405
RS-15 04 Dec 10:21:42 10:31:59 32° 319° (NW) 10:42:40 29.354- 29.394
TIGRISAT 04 Dec 10:22:50 10:27:28 61° 260° (W) 10:32:07 435.000
ANTELSAT 04 Dec 10:23:47 10:28:24 56° 260° (W) 10:33:00 437.575/2403.000
ZACube-1 04 Dec 10:33:18 10:36:22 20° 291° (WNW) 10:39:25 437.345
Cosmos 2499 04 Dec 10:37:11 10:39:52 12° 61° (ENE) 10:42:30 435.465 / 435.565
JAS-2 04 Dec 10:37:47 10:44:02 42° 72° (ENE) 10:49:36 435.910
HUMSAT D 04 Dec 10:42:29 10:46:34 81° 104° (ESE) 10:50:37 437.325/437.525
FUNcube-1 04 Dec 10:42:29 10:45:14 17° 292° (WNW) 10:47:57 145.935
NANOSAT C BR1 04 Dec 10:56:59 11:00:43 31° 72° (ENE) 11:04:29 145.865
QB50P2 04 Dec 11:00:33 11:04:32 39° 73° (ENE) 11:08:32 145.880/145.840
POLYITAN 1 04 Dec 11:01:10 11:05:07 37° 73° (ENE) 11:09:07 437.675
DELFI C3 04 Dec 11:02:11 11:05:30 26° 289° (WNW) 11:08:51 145.870
AO-85 04 Dec 11:12:04 11:14:59 19° 51° (NE) 11:17:51 145.980
CUSAT 1 04 Dec 11:12:06 11:12:26 10° 282° (WNW) 11:12:46 437.405
QB50P1 04 Dec 11:14:39 11:18:49 54° 75° (ENE) 11:23:00 145.935-145.965
DUCHIFAT 1 04 Dec 11:19:48 11:23:56 53° 75° (ENE) 11:28:06 145.980
ESTCUBE 1 04 Dec 11:23:20 11:27:15 28° 97° (E) 11:31:08 437.505/2401.250
GONETS M04 04 Dec 11:29:19 11:36:33 28° 72° (ENE) 11:43:45
UNISAT 6 04 Dec 11:33:06 11:33:50 10° 269° (W) 11:34:35 437.425
DANDE 04 Dec 11:33:37 11:38:23 35° 279° (W) 11:42:04 436.750
POPSAT HIP 1 04 Dec 11:35:50 11:40:06 84° 256° (WSW) 11:44:26 437.405
AISAT 04 Dec 11:39:11 11:42:10 17° 94° (E) 11:45:08 437.250
PCSat 04 Dec 11:40:52 11:45:57 44° 111° (ESE) 11:51:04 145.827
JUGNU 04 Dec 11:47:59 11:49:56 12° 167° (SSE) 11:51:51 437.505
Oscar 19 04 Dec 11:49:01 11:50:11 11° 62° (ENE) 11:51:21 437.125/150
CUBEBUG 1 04 Dec 12:09:27 12:13:50 58° 100° (E) 12:18:11 437.445
VELOX 1 04 Dec 12:15:11 12:19:27 42° 100° (E) 12:23:40 145.980
JAS-2 04 Dec 12:23:31 12:29:04 27° 263° (W) 12:34:09 435.910
BUGSAT 1 04 Dec 12:24:46 12:28:57 70° 259° (W) 12:33:12 437.445
Cosmos 2499 04 Dec 12:26:05 12:34:42 72° 82° (E) 12:42:39 435.465 / 435.565
NANOSAT C BR1 04 Dec 12:33:27 12:36:27 19° 265° (W) 12:39:27 145.865
DX 1 04 Dec 12:35:12 12:39:16 36° 99° (E) 12:43:19 434.975-435.025
QB50P2 04 Dec 12:38:05 12:40:27 14° 267° (W) 12:42:50 145.880/145.840
POLYITAN 1 04 Dec 12:38:30 12:41:01 15° 266° (W) 12:43:34 437.675
RS-15 04 Dec 12:44:11 12:50:21 15° 354° (N) 12:56:33 29.354- 29.394
UKube-1 04 Dec 12:46:15 12:50:15 35° 98° (E) 12:54:13 .
AO-85 04 Dec 12:52:01 12:55:23 28° 247° (WSW) 12:58:42 145.980
QB50P1 04 Dec 12:54:12 12:54:51 10° 268° (W) 12:55:31 145.935-145.965
TISAT 1 04 Dec 12:58:21 12:59:50 12° 92° (E) 13:01:19 437.305
50 SAT 04 Dec 12:58:54 13:02:22 53° 284° (WNW) 13:05:50 437.505
DUCHIFAT 1 04 Dec 12:59:01 12:59:52 11° 268° (W) 13:00:46 145.980
ESTCUBE 1 04 Dec 13:00:21 13:03:52 23° 291° (WNW) 13:07:24 437.505/2401.250
SPROUT 04 Dec 13:02:50 13:07:08 78° 285° (WNW) 13:11:24 437.525
Gurwin Techsat 1B 04 Dec 13:04:53 13:09:34 32° 69° (ENE) 13:14:15 435.225
AISAT 04 Dec 13:14:36 13:18:42 36° 289° (WNW) 13:22:46 437.250
Oscar 19 04 Dec 13:23:38 13:28:45 81° 257° (WSW) 13:33:55 437.125/150
PCSat 04 Dec 13:25:12 13:29:30 24° 307° (NW) 13:33:50 145.827
GONETS M04 04 Dec 13:25:18 13:33:43 56° 270° (W) 13:42:09
JUGNU 04 Dec 13:34:29 13:38:10 17° 177° (S) 13:41:49 437.505
CUBEBUG 1 04 Dec 13:48:01 13:49:33 12° 295° (WNW) 13:51:06 437.445
ITAMSAT 1 04 Dec 13:49:36 13:53:13 19° 65° (ENE) 13:56:51 435.822/435.867
VELOX 1 04 Dec 13:52:52 13:55:30 16° 294° (WNW) 13:58:08 145.980
AO-7 04 Dec 13:53:40 14:00:00 25° 58° (ENE) 14:06:21 29.400- 29.500
ITUPSAT 1 04 Dec 14:03:04 14:04:51 12° 92° (E) 14:06:38 437.325
DX 1 04 Dec 14:12:15 14:15:08 17° 293° (WNW) 14:18:00 434.975-435.025
Cosmos 2499 04 Dec 14:21:07 14:26:45 20° 280° (W) 14:32:10 435.465 / 435.565
AUBIESAT-1 04 Dec 14:21:34 14:24:39 18° 98° (E) 14:27:37 437.475
UKube-1 04 Dec 14:23:08 14:25:59 17° 293° (WNW) 14:28:48 .
M-CUBED/EXP-1 PRIME 04 Dec 14:31:25 14:35:29 29° 101° (E) 14:39:23 437.505
TISAT 1 04 Dec 14:31:38 14:35:42 47° 286° (WNW) 14:39:43 437.305
Gurwin Techsat 1B 04 Dec 14:45:01 14:49:27 27° 264° (W) 14:53:56 435.225
MOZHAYETS 4 04 Dec 14:59:47 15:00:52 11° 91° (E) 15:01:57
RS-15 04 Dec 15:00:30 15:09:49 23° 31° (NNE) 15:18:56 29.354- 29.394
BEESAT 3 04 Dec 15:06:39 15:10:39 84° 60° (ENE) 15:14:37 437.485
SWISSCUBE 04 Dec 15:07:34 15:12:20 76° 102° (ESE) 15:17:04 437.505
SRMSAT 04 Dec 15:10:14 15:13:23 15° 172° (S) 15:16:33 437.500
BEESAT 04 Dec 15:11:50 15:16:35 75° 103° (ESE) 15:21:18 436.000
JUGNU 04 Dec 15:23:03 15:26:25 15° 187° (S) 15:29:47 437.505
ITAMSAT 1 04 Dec 15:27:18 15:32:18 46° 260° (W) 15:37:19 435.822/435.867
BEESAT 2 04 Dec 15:31:49 15:35:50 70° 60° (ENE) 15:39:50 435.950
ITUPSAT 1 04 Dec 15:38:20 15:43:00 58° 286° (WNW) 15:47:40 437.325
KKS-1 04 Dec 15:42:18 15:44:24 13° 93° (E) 15:46:30 437.445
AO-7 04 Dec 15:43:48 15:52:02 69° 255° (WSW) 16:00:21 29.400- 29.500
ISS 04 Dec 15:49:09 15:50:55 14° 127° (SE) 15:52:41 145.825
HORYU 2 04 Dec 15:53:36 15:54:32 11° 64° (ENE) 15:55:28 437.375
AUBIESAT-1 04 Dec 15:54:52 15:59:08 39° 293° (WNW) 16:03:15 437.475
M-CUBED/EXP-1 PRIME 04 Dec 16:05:55 16:09:45 26° 296° (WNW) 16:13:29 437.505
O/OREOS (USA 219) 04 Dec 16:07:49 16:12:00 36° 104° (ESE) 16:16:10 437.305
BRITE-PL 04 Dec 16:14:10 16:17:20 21° 68° (ENE) 16:20:37 437.365/2234.400
CUBESAT XI-V 04 Dec 16:32:53 16:35:53 17° 93° (E) 16:38:51 437.345
MOZHAYETS 4 04 Dec 16:33:52 16:38:21 58° 285° (WNW) 16:42:49
SWISSCUBE 04 Dec 16:48:55 16:49:26 10° 298° (WNW) 16:49:57 437.505
CUTE-I 04 Dec 16:50:47 16:53:48 15° 63° (ENE) 16:56:49 437.470
BEESAT 04 Dec 16:52:57 16:53:41 10° 297° (WNW) 16:54:26 436.000
SRMSAT 04 Dec 16:58:08 17:01:48 17° 182° (S) 17:05:27 437.500
RS-15 04 Dec 17:12:40 17:25:04 71° 58° (ENE) 17:36:58 29.354- 29.394
Cubesat XI-IV 04 Dec 17:14:35 17:18:57 26° 67° (ENE) 17:23:18 437.490
KKS-1 04 Dec 17:16:53 17:21:11 48° 287° (WNW) 17:25:28 437.445
NOAA 15 04 Dec 17:17:32 17:22:03 30° 69° (ENE) 17:26:35 137.62
ISS 04 Dec 17:23:56 17:27:06 45° 321° (NW) 17:30:18 145.825
HORYU 2 04 Dec 17:26:02 17:30:28 66° 258° (WSW) 17:34:57 437.375
STARS 04 Dec 17:27:32 17:31:58 82° 284° (WNW) 17:36:21 437.465
Cosmos 2491 04 Dec 17:29:30 17:36:07 23° 70° (ENE) 17:42:42 435.465 / 435.565
GOMX 1 04 Dec 17:35:25 17:39:48 69° 76° (ENE) 17:44:34 467.674
LilacSat-2 04 Dec 17:35:49 17:39:20 35° 74° (ENE) 17:42:52 437.200
AIST 2 04 Dec 17:43:41 17:47:44 43° 57° (ENE) 17:51:45 435.215
O/OREOS (USA 219) 04 Dec 17:48:15 17:51:29 19° 300° (WNW) 17:54:44 437.305
BRITE-PL 04 Dec 17:52:02 17:55:38 27° 265° (W) 17:59:25 437.365/2234.400
CINEMA 3 04 Dec 17:52:19 17:53:02 10° 62° (ENE) 17:53:44 145.822/145.860
DOVE 4 04 Dec 17:54:27 17:58:52 44° 73° (ENE) 18:03:36 437.250
YUBILEINY 04 Dec 17:57:42 18:01:34 14° 77° (ENE) 18:05:26 435.215
HO-68 04 Dec 18:01:02 18:05:32 18° 59° (ENE) 18:10:02 435.675
CUBESAT XI-V 04 Dec 18:09:00 18:13:21 40° 288° (WNW) 18:17:43 437.345
NOAA 18 04 Dec 18:22:42 18:28:13 76° 74° (ENE) 18:33:46 137.9125
CUTE 1.7 + AOD 2 04 Dec 18:27:42 18:29:18 12° 66° (ENE) 18:30:55 437.475
CUTE-I 04 Dec 18:27:58 18:33:16 62° 259° (WSW) 18:38:36 437.470
CANX-2 04 Dec 18:43:31 18:46:46 22° 70° (ENE) 18:50:00 2200.000
SRMSAT 04 Dec 18:47:51 18:50:11 12° 192° (SSW) 18:52:32 437.500
Cubesat XI-IV 04 Dec 18:53:54 18:58:47 35° 262° (W) 19:03:43 437.490
NOAA 15 04 Dec 18:57:17 19:01:45 28° 263° (W) 19:06:13 137.62
LilacSat-2 04 Dec 19:11:54 19:13:43 13° 267° (W) 19:15:33 437.200
SEEDS 04 Dec 19:12:08 19:15:36 26° 71° (ENE) 19:19:06 437.485
AIST 2 04 Dec 19:23:28 19:25:49 15° 251° (WSW) 19:28:10 435.215
CINEMA 3 04 Dec 19:24:29 19:29:21 82° 258° (WSW) 19:34:23 145.822/145.860
Cosmos 2491 04 Dec 19:24:58 19:33:35 66° 267° (W) 19:42:09 435.465 / 435.565
COMPASS 1 04 Dec 19:25:49 19:29:11 25° 71° (ENE) 19:32:34 437.405
RS-15 04 Dec 19:26:35 19:36:26 30° 257° (WSW) 19:46:03 29.354- 29.394
STRAND 1 04 Dec 19:28:44 19:33:33 41° 99° (E) 19:38:19 437.568
AIST 1 04 Dec 19:29:09 19:31:59 17° 87° (E) 19:34:51
DOVE 4 04 Dec 19:33:53 19:36:49 16° 269° (W) 19:39:51 437.250
SO-50 04 Dec 19:40:13 19:43:32 19° 110° (ESE) 19:46:49 436.795
HO-68 04 Dec 19:45:14 19:52:24 79° 256° (WSW) 19:59:37 435.675
YUBILEINY 04 Dec 19:48:15 19:56:57 86° 94° (E) 20:05:44 435.215
ZACube-1 04 Dec 19:49:55 19:52:55 18° 68° (ENE) 19:55:55 437.345
CUBEBUG 2 04 Dec 19:53:39 19:58:15 51° 74° (ENE) 20:02:50 437.445
FUNcube-1 04 Dec 19:58:15 20:01:32 20° 69° (ENE) 20:04:48 145.935
CUTE 1.7 + AOD 2 04 Dec 20:00:35 20:04:40 49° 261° (W) 20:08:46 437.475
Cosmos 2504 04 Dec 20:00:59 20:08:49 51° 89° (E) 20:17:08 435.465 / 435.565
CUSAT 1 04 Dec 20:01:40 20:03:25 13° 78° (ENE) 20:05:20 437.405
NOAA 18 04 Dec 20:07:29 20:09:22 12° 269° (W) 20:11:15 137.9125
CANX-2 04 Dec 20:18:56 20:22:27 25° 264° (W) 20:25:58 2200.000
Oscar 11 04 Dec 20:30:06 20:34:10 41° 73° (ENE) 20:38:13 145.826/435.025
AAUSAT CUBESAT 2 04 Dec 20:31:47 20:35:51 64° 259° (W) 20:39:56 437.432
PCSat 04 Dec 20:32:16 20:36:16 20° 51° (NE) 20:40:14 145.827
UWE-3 04 Dec 20:39:27 20:44:07 78° 258° (WSW) 20:48:47 435.000/436.395/437.385
SEEDS 04 Dec 20:48:07 20:51:14 20° 265° (W) 20:54:22 437.485
COMPASS 1 04 Dec 21:01:29 21:04:39 21° 265° (W) 21:07:50 437.405
AIST 1 04 Dec 21:05:30 21:09:17 30° 282° (WNW) 21:13:08
STRAND 1 04 Dec 21:08:42 21:12:22 20° 294° (WNW) 21:16:03 437.568
SO-50 04 Dec 21:19:07 21:23:40 43° 304° (NW) 21:28:11 436.795
ZACube-1 04 Dec 21:24:36 21:28:52 39° 262° (W) 21:33:08 437.345
HUMSAT D 04 Dec 21:30:31 21:34:23 36° 73° (ENE) 21:38:14 437.325/437.525
CUBEBUG 2 04 Dec 21:32:38 21:35:04 14° 268° (W) 21:37:32 437.445
FUNcube-1 04 Dec 21:33:23 21:37:31 34° 263° (W) 21:41:37 145.935
HO-68 04 Dec 21:39:52 21:41:01 10° 271° (W) 21:42:11 435.675
CUSAT 1 04 Dec 21:41:36 21:45:07 37° 263° (W) 21:49:37 437.405
PRISM 04 Dec 21:42:19 21:46:28 74° 101° (E) 21:50:37 437.425
DELFI C3 04 Dec 21:43:55 21:47:48 73° 258° (WSW) 21:51:44 145.870
UNISAT 6 04 Dec 21:48:21 21:51:06 16° 93° (E) 21:53:48 437.425
YUBILEINY 04 Dec 21:49:36 21:54:50 17° 294° (WNW) 22:00:07 435.215
Cosmos 2504 04 Dec 21:55:22 22:02:28 31° 288° (WNW) 22:09:58 435.465 / 435.565
Oscar 11 04 Dec 22:08:09 22:10:26 14° 267° (W) 22:12:43 145.826/435.025
DANDE 04 Dec 22:13:01 22:15:52 65° 261° (W) 22:19:21 436.750
PCSat 04 Dec 22:14:42 22:19:57 53° 248° (WSW) 22:25:11 145.827
TIGRISAT 04 Dec 22:17:50 22:21:49 33° 97° (E) 22:25:41 435.000
ANTELSAT 04 Dec 22:18:49 22:22:53 36° 98° (E) 22:26:51 437.575/2403.000
ESTCUBE 1 04 Dec 22:20:38 22:23:44 19° 68° (ENE) 22:26:51 437.505/2401.250
AISAT 04 Dec 22:35:23 22:36:43 11° 64° (ENE) 22:38:03 437.250
CUBEBUG 1 04 Dec 23:02:30 23:06:21 32° 71° (ENE) 23:10:15 437.445
QB50P1 04 Dec 23:04:54 23:05:59 11° 92° (E) 23:07:04 145.935-145.965
HUMSAT D 04 Dec 23:07:33 23:10:05 15° 266° (W) 23:12:35 437.325/437.525
VELOX 1 04 Dec 23:09:47 23:13:26 26° 70° (ENE) 23:17:07 145.980
DUCHIFAT 1 04 Dec 23:09:57 23:10:26 10° 91° (E) 23:10:55 145.980
UNISAT 6 04 Dec 23:23:54 23:27:55 36° 288° (WNW) 23:31:52 437.425
POPSAT HIP 1 04 Dec 23:24:29 23:27:33 19° 95° (E) 23:30:35 437.405
DX 1 04 Dec 23:28:14 23:31:35 22° 69° (ENE) 23:34:58 434.975-435.025
50 SAT 04 Dec 23:31:14 23:34:23 32° 73° (ENE) 23:37:33 437.505
JAS-2 04 Dec 23:34:34 23:39:29 42° 99° (E) 23:44:39 435.910
UKube-1 04 Dec 23:38:20 23:41:34 21° 68° (ENE) 23:44:49 .
SPROUT 04 Dec 23:52:55 23:57:04 51° 75° (ENE) 00:01:16 437.525
ISS 04 Dec 23:54:09 23:57:24 49° 39° (NE) 00:00:36 145.825
TIGRISAT 04 Dec 23:55:13 23:58:12 18° 292° (WNW) 00:01:09 435.000
ESTCUBE 1 04 Dec 23:56:12 00:00:16 34° 262° (W) 00:04:21 437.505/2401.250
ANTELSAT 04 Dec 23:56:29 23:59:16 17° 293° (WNW) 00:02:00 437.575/2403.000
AISAT 05 Dec 00:08:16 00:12:37 60° 259° (W) 00:17:00 437.250
BUGSAT 1 05 Dec 00:10:20 00:13:29 20° 95° (E) 00:16:36 437.445
NANOSAT C BR1 05 Dec 00:19:13 00:23:28 87° 101° (E) 00:27:40 145.865
QB50P2 05 Dec 00:23:43 00:27:56 70° 285° (WNW) 00:32:08 145.880/145.840
POLYITAN 1 05 Dec 00:24:17 00:28:31 74° 283° (WNW) 00:32:42 437.675
GONETS M04 05 Dec 00:26:37 00:34:16 36° 86° (E) 00:41:54
QB50P1 05 Dec 00:37:54 00:42:00 50° 286° (WNW) 00:46:05 145.935-145.965
CUBEBUG 1 05 Dec 00:39:37 00:42:40 19° 266° (W) 00:45:44 437.445
DUCHIFAT 1 05 Dec 00:42:17 00:46:24 53° 286° (WNW) 00:50:28 145.980
VELOX 1 05 Dec 00:46:17 00:49:48 23° 264° (W) 00:53:21 145.980
Cosmos 2499 05 Dec 00:57:09 01:05:24 64° 91° (E) 01:14:07 435.465 / 435.565
PHONESAT 2.4 05 Dec 00:58:45 01:01:20 48° 153° (SSE) 01:03:55 2401.200-2431.200
POPSAT HIP 1 05 Dec 00:59:39 01:03:19 29° 289° (WNW) 01:06:56 437.405
DX 1 05 Dec 01:03:55 01:07:36 27° 263° (W) 01:11:19 434.975-435.025
AUBIESAT-1 05 Dec 01:05:09 01:07:10 13° 59° (ENE) 01:09:13 437.475
50 SAT 05 Dec 01:06:47 01:07:46 11° 267° (W) 01:08:47 437.505
ITUPSAT 1 05 Dec 01:08:01 01:09:18 11° 63° (ENE) 01:10:35 437.325
UKube-1 05 Dec 01:13:42 01:17:24 28° 263° (W) 01:21:08 .
M-CUBED/EXP-1 PRIME 05 Dec 01:14:59 01:18:03 21° 63° (ENE) 01:21:17 437.505
TISAT 1 05 Dec 01:19:33 01:23:47 82° 76° (ENE) 01:28:02 437.305
JAS-2 05 Dec 01:20:40 01:24:19 20° 293° (WNW) 01:28:04 435.910
AO-85 05 Dec 01:23:45 01:26:50 16° 110° (ESE) 01:29:48 145.980
Gurwin Techsat 1B 05 Dec 01:25:06 01:28:17 16° 93° (E) 01:31:27 435.225
ISS 05 Dec 01:32:00 01:33:33 13° 233° (SW) 01:35:06 145.825
SPROUT 05 Dec 01:32:01 01:33:15 11° 268° (W) 01:34:31 437.525
Oscar 19 05 Dec 01:38:17 01:43:16 45° 100° (E) 01:48:13 437.125/150
BUGSAT 1 05 Dec 01:45:17 01:48:48 26° 290° (WNW) 01:52:16 437.445
SWISSCUBE 05 Dec 02:10:49 02:15:30 61° 74° (ENE) 02:20:13 437.505
BEESAT 05 Dec 02:14:59 02:19:41 60° 74° (ENE) 02:24:24 436.000
O/OREOS (USA 219) 05 Dec 02:20:35 02:24:50 42° 66° (ENE) 02:29:03 437.305
GONETS M04 05 Dec 02:22:38 02:30:49 44° 283° (WNW) 02:39:01
PHONESAT 2.4 05 Dec 02:34:10 02:36:39 33° 349° (NNW) 02:39:06 2401.200-2431.200
AUBIESAT-1 05 Dec 02:37:09 02:41:02 49° 257° (WSW) 02:45:13 437.475
ITUPSAT 1 05 Dec 02:41:43 02:46:29 71° 258° (WSW) 02:51:16 437.325
M-CUBED/EXP-1 PRIME 05 Dec 02:48:52 02:52:18 28° 260° (W) 02:55:59 437.505
Cosmos 2499 05 Dec 02:52:22 02:59:07 26° 290° (WNW) 03:06:09 435.465 / 435.565
AO-85 05 Dec 03:02:05 03:06:57 51° 302° (WNW) 03:11:29 145.980
Gurwin Techsat 1B 05 Dec 03:03:19 03:08:29 54° 287° (WNW) 03:13:39 435.225
Oscar 19 05 Dec 03:18:35 03:22:12 19° 294° (WNW) 03:25:50 437.125/150
MOZHAYETS 4 05 Dec 03:32:14 03:36:50 90° 259° (W) 03:41:26
CUBESAT XI-V 05 Dec 03:34:48 03:36:30 12° 65° (ENE) 03:38:13 437.345
ITAMSAT 1 05 Dec 03:42:54 03:48:06 80° 104° (ESE) 03:53:15 435.822/435.867
AO-7 05 Dec 03:48:48 03:56:54 51° 102° (ESE) 04:04:57 29.400- 29.500
SWISSCUBE 05 Dec 03:52:06 03:53:38 11° 268° (W) 03:55:09 437.505
BEESAT 05 Dec 03:56:10 03:57:48 12° 268° (W) 03:59:26 436.000
O/OREOS (USA 219) 05 Dec 04:01:23 04:03:48 14° 261° (W) 04:06:14 437.305
PHONESAT 2.4 05 Dec 04:09:55 04:12:16 27° 5° (N) 04:14:37 2401.200-2431.200
KKS-1 05 Dec 04:11:21 04:15:48 78° 258° (WSW) 04:20:18 437.445
STARS 05 Dec 04:20:46 04:25:06 59° 74° (ENE) 04:29:28 437.465
BRITE-PL 05 Dec 04:22:22 04:24:13 12° 90° (E) 04:26:04 437.365/2234.400
BEESAT 3 05 Dec 04:54:19 04:57:37 27° 112° (ESE) 05:00:58 437.485
CUBESAT XI-V 05 Dec 05:08:49 05:13:20 59° 260° (W) 05:17:53 437.345
HORYU 2 05 Dec 05:20:17 05:24:06 28° 97° (E) 05:27:54 437.375
BEESAT 2 05 Dec 05:21:06 05:24:16 24° 112° (ESE) 05:27:29 435.950
ITAMSAT 1 05 Dec 05:25:21 05:26:49 11° 299° (WNW) 05:28:18 435.822/435.867
Cubesat XI-IV 05 Dec 05:36:29 05:38:28 12° 91° (E) 05:40:26 437.490
NOAA 15 05 Dec 05:36:51 05:39:34 14° 92° (E) 05:42:16 137.62
GOMX 1 05 Dec 05:39:57 05:44:45 30° 96° (E) 05:49:30 467.674
AO-7 05 Dec 05:42:05 05:49:18 34° 299° (WNW) 05:56:32 29.400- 29.500
PHONESAT 2.4 05 Dec 05:45:05 05:47:44 80° 22° (NNE) 05:50:22 2401.200-2431.200
SO-50 05 Dec 05:53:09 05:57:40 73° 60° (ENE) 06:02:05 436.795
DOVE 4 05 Dec 05:57:16 06:00:47 18° 92° (E) 06:04:12 437.250
BRITE-PL 05 Dec 05:57:35 06:03:03 79° 283° (WNW) 06:08:43 437.365/2234.400
Cosmos 2504 05 Dec 05:59:33 06:04:24 16° 64° (ENE) 06:09:05 435.465 / 435.565
STARS 05 Dec 06:01:12 06:01:46 10° 269° (W) 06:02:20 437.465
YUBILEINY 05 Dec 06:02:34 06:10:36 37° 75° (ENE) 06:18:34 435.215
Cosmos 2491 05 Dec 06:27:02 06:34:16 30° 84° (E) 06:41:29 435.465 / 435.565
BEESAT 3 05 Dec 06:32:13 06:35:13 21° 308° (NW) 06:38:15 437.485
STRAND 1 05 Dec 06:41:32 06:46:23 44° 72° (ENE) 06:51:15 437.568
LilacSat-2 05 Dec 06:45:47 06:49:34 83° 102° (ESE) 06:53:20 437.200
CUTE-I 05 Dec 06:48:01 06:53:21 68° 102° (ESE) 06:58:37 437.470
NOAA 18 05 Dec 06:48:06 06:53:18 41° 99° (E) 06:58:27 137.9125
HORYU 2 05 Dec 06:57:04 07:00:28 22° 292° (WNW) 07:03:51 437.375
BEESAT 2 05 Dec 06:58:44 07:01:57 24° 307° (NW) 07:05:13 435.950
Cubesat XI-IV 05 Dec 07:13:39 07:18:58 70° 286° (WNW) 07:24:14 437.490
NOAA 15 05 Dec 07:14:29 07:19:40 60° 287° (WNW) 07:24:52 137.62
AIST 1 05 Dec 07:14:56 07:19:10 45° 80° (E) 07:23:23
HO-68 05 Dec 07:17:20 07:22:54 24° 95° (E) 07:28:24 435.675
GOMX 1 05 Dec 07:17:54 07:22:41 32° 290° (WNW) 07:27:28 467.674
PHONESAT 2.4 05 Dec 07:21:17 07:22:42 13° 215° (SW) 07:24:07 2401.200-2431.200
CINEMA 3 05 Dec 07:23:00 07:27:14 31° 96° (E) 07:31:17 145.822/145.860
RS-15 05 Dec 07:30:56 07:42:16 62° 111° (ESE) 07:54:09 29.354- 29.394
DOVE 4 05 Dec 07:33:34 07:38:40 48° 287° (WNW) 07:43:36 437.250
AIST 2 05 Dec 07:39:21 07:42:08 18° 110° (ESE) 07:44:56 435.215
CUTE 1.7 + AOD 2 05 Dec 07:48:26 07:52:15 32° 97° (E) 07:56:03 437.475
CUBEBUG 2 05 Dec 07:49:48 07:51:38 12° 91° (E) 07:53:26 437.445
Cosmos 2504 05 Dec 07:50:15 07:59:06 87° 84° (E) 08:07:22 435.465 / 435.565
YUBILEINY 05 Dec 07:59:14 08:07:21 43° 272° (W) 08:15:29 435.215
CANX-2 05 Dec 08:05:56 08:10:08 65° 101° (ESE) 08:14:18 2200.000
AAUSAT CUBESAT 2 05 Dec 08:17:20 08:20:40 23° 96° (E) 08:24:00 437.432
Cosmos 2491 05 Dec 08:22:06 08:30:36 52° 281° (WNW) 08:39:06 435.465 / 435.565
STRAND 1 05 Dec 08:22:10 08:25:42 19° 266° (W) 08:29:15 437.568
PRISM 05 Dec 08:28:48 08:32:26 33° 72° (ENE) 08:36:07 437.425
NOAA 18 05 Dec 08:29:21 08:33:40 24° 294° (WNW) 08:37:57 137.9125
CUTE-I 05 Dec 08:30:09 08:32:45 14° 297° (WNW) 08:35:20 437.470
UWE-3 05 Dec 08:32:57 08:36:30 25° 95° (E) 08:39:58 435.000/436.395/437.385
SEEDS 05 Dec 08:33:29 08:37:41 79° 102° (ESE) 08:41:53 437.485
UNISAT 6 05 Dec 08:45:23 08:47:08 12° 65° (ENE) 08:48:52 437.425
COMPASS 1 05 Dec 08:45:52 08:50:01 72° 100° (E) 08:54:11 437.405
AIST 1 05 Dec 08:54:29 08:56:16 12° 275° (W) 08:58:04
CINEMA 3 05 Dec 09:00:25 09:04:08 23° 292° (WNW) 09:07:44 145.822/145.860
CUSAT 1 05 Dec 09:02:52 09:04:09 12° 95° (E) 09:05:20 437.405
HO-68 05 Dec 09:03:53 09:10:54 57° 290° (WNW) 09:17:54 435.675
TIGRISAT 05 Dec 09:13:32 09:17:12 23° 69° (ENE) 09:20:50 435.000
ANTELSAT 05 Dec 09:14:35 09:18:23 25° 70° (ENE) 09:22:09 437.575/2403.000
ZACube-1 05 Dec 09:15:51 09:19:56 48° 99° (E) 09:23:57 437.345
AIST 2 05 Dec 09:16:36 09:20:19 33° 305° (NW) 09:24:07 435.215
FUNcube-1 05 Dec 09:24:05 09:28:14 56° 100° (E) 09:32:17 145.935
CUBEBUG 2 05 Dec 09:24:19 09:28:31 45° 286° (WNW) 09:32:34 437.445
CUTE 1.7 + AOD 2 05 Dec 09:25:01 09:27:48 17° 291° (WNW) 09:30:36 437.475
DELFI C3 05 Dec 09:25:03 09:27:41 17° 94° (E) 09:30:20 145.870
DANDE 05 Dec 09:38:19 09:40:22 13° 94° (E) 09:42:13 436.750
